Meteo Giornale » Osservazioni meteo Francia » Nizza

ore: 04:30 - Osservazioni Meteo Nizza
Lat. 43° 39' N Lon. 7° 12' E Alt. 4 metri s.l.m.

sereno Europe/Paris

9 °C

Sereno

Temp. 24 Ore

9 °C

17 °C

Nord/NOvest

20.3 Km/h

Dew point 4 °C

Umidità 70 %

Visibilità  10 Km

Il sole sorge alle ore 07:49

Il sole tramonta alle ore 16:56

Data e Ora Cielo e Fenomeni T °C DP °C Um. % Pres. hPa Vis. km Vento km/h
Oggi h: 04:30 sereno Sereno 9 4 70 1018 10 N/NO 20.3
Oggi h: 04:00 sereno Sereno 9 5 75 1018 10 N/NO 20.3
Oggi h: 03:30 sereno Sereno 9 5 75 1019 10 N/NO 18.5
Oggi h: 02:30 sereno Sereno 9 5 75 1019 10 N/NO 9.3
Oggi h: 02:00 nuvoloso Nuvoloso 9 5 75 1019 10 N/NO 13
Oggi h: 01:30 nuvoloso Nuvoloso 9 5 75 1019 10 N/NO 16.7
Oggi h: 01:00 nuvoloso Nuvoloso 10 5 71 1020 10 N/NO 14.8
Oggi h: 00:30 nuvoloso Nuvoloso 10 6 76 1020 10 N/NO 16.7
Oggi h: 00:00 molto_nuvoloso Molto Nuvoloso 10 6 76 1020 10 N/NO 16.7
Ieri h: 23:30 molto_nuvoloso Molto Nuvoloso 10 6 76 1020 10 N/NO 16.7
Ieri h: 23:00 molto_nuvoloso Molto Nuvoloso 11 6 71 1020 10 N/NO 16.7
Ieri h: 22:30 molto_nuvoloso Molto Nuvoloso 11 6 71 1021 10 N/NO 16.7
Ieri h: 22:00 molto_nuvoloso Molto Nuvoloso 11 7 76 1021 10 N/NO 14.8
Ieri h: 21:30 molto_nuvoloso Molto Nuvoloso 12 7 71 1021 10 NO 14.8
Ieri h: 21:00 molto_nuvoloso Molto Nuvoloso 12 7 71 1021 10 NO 14.8
Ieri h: 20:30 molto_nuvoloso Molto Nuvoloso 12 8 76 1021 10 N/NO 11.1
Ieri h: 20:00 molto_nuvoloso Molto Nuvoloso 11 8 81 1021 10 NO 11.1
Ieri h: 19:30 nuvoloso Nuvoloso 11 8 81 1021 10 NO 11.1
Ieri h: 19:00 nuvoloso Nuvoloso 11 8 81 1021 10 NO 9.3
Ieri h: 18:30 nuvoloso Nuvoloso 11 8 81 1021 10 NO 7.4
Ieri h: 18:00 poco_nuvoloso Poco Nuvoloso 13 9 76 1021 10 N 5.5
Ieri h: 17:30 poco_nuvoloso Poco Nuvoloso 14 9 71 1020 10 N 5.5
Ieri h: 17:00 poco_nuvoloso Poco Nuvoloso 14 9 71 1020 10 N 5.5
Ieri h: 16:30 poco_nuvoloso Poco Nuvoloso 14 9 71 1020 10 N 3.7
Ieri h: 16:00 sereno Sereno 15 8 62 1020 10 N 5.5
Ieri h: 15:30 sereno Sereno 16 7 55 1021 10 N 5.5
Ieri h: 15:00 sereno Sereno 16 7 55 1021 10 N 5.5
Ieri h: 14:30 sereno Sereno 16 6 51 1021 10 N 5.5
Ieri h: 14:00 poco_nuvoloso Poco Nuvoloso 17 6 48 1021 10 N 3.7
Ieri h: 13:30 nuvoloso Nuvoloso 16 5 47 1022 10 N 0
Ieri h: 13:00 molto_nuvoloso Molto Nuvoloso 16 5 47 1022 10 N 5.5
Ieri h: 12:30 nuvoloso Nuvoloso 16 4 44 1022 10 N 5.5
Ieri h: 12:00 poco_nuvoloso Poco Nuvoloso 14 4 50 1023 10 NO 11.1
Ieri h: 11:30 nuvoloso Nuvoloso 13 4 54 1023 10 N/NO 13
Ieri h: 11:00 nuvoloso Nuvoloso 11 4 61 1023 10 N/NO 13
Ieri h: 10:30 molto_nuvoloso Molto Nuvoloso 11 3 57 1024 10 N/NO 13
Ieri h: 10:04 molto_nuvoloso Molto Nuvoloso 11 3 57 1023 10 N/NO 16.7
Ieri h: 09:30 molto_nuvoloso Molto Nuvoloso 10 3 61 1023 10 N/NO 18.5
Ieri h: 09:00 molto_nuvoloso Molto Nuvoloso 10 3 61 1023 10 N/NO 20.3
Ieri h: 08:00 molto_nuvoloso Molto Nuvoloso 10 3 61 1023 10 N/NO 16.7
Ieri h: 07:30 nuvoloso Nuvoloso 10 3 61 1023 10 N/NO 18.5
Ieri h: 07:00 molto_nuvoloso Molto Nuvoloso 11 3 57 1022 10 N/NO 14.8
Ieri h: 06:30 molto_nuvoloso Molto Nuvoloso 11 3 57 1022 10 N/NO 14.8
Ieri h: 06:00 molto_nuvoloso Molto Nuvoloso 11 3 57 1022 10 NO 16.7